OPS 4682 DEB

Satellite information

Favourite Embed

Satellite Type and Status

DEBRISIN ORBIT

Key statistics

Satellite OPS 4682 DEB at a glance.

Uptime

22011

Days in orbit

Revolutions

≈ 13.0

Per day

Orbit

SSO

Sun Synchronous Orbit

Inclination

90.2

Latest

Satellite identification and parameters

Extended collection of information and parameters for OPS 4682 DEB.

Object identification

Identified? True

Debris? True

Object name: OPS 4682 DEB

International designator: 1965-027AL

Object number (NORAD): 18784

Object ID (CCSDS): 18784

Country: UNITED STATES OF AMERICA (US)

Current information (Y/N): Y

RCS size: SMALL

Orbital parameters

Period: 111.029 minutes

Inclination: 90.2468 deg

SMA: 7652.171 km

Apoapsis: 1303.313 km

Periapsis: 1244.76 km

RAAN: 356.4583 deg

Eccentricy: 0.0038259

Argument of periapsis: 309.185 deg

Mean anomaly: 78.6045 deg

Mean motion: 12.96957509 rev/day

Mean motion (dot): 0.00000003 rev/day2

B* drag term: -0.000014102 1/REarth

Two-line elements (TLE)

Creation date: July 6, 2025, 6:05 p.m.

Reference frame: TEME

Reference center: EARTH

Epoch: July 6, 2025, 9:55 a.m. UTC

TLE line 0: 0 OPS 4682 DEB

TLE line 1: 1 18784U 65027AL 25187.41320259 .00000003 00000-0 -14102-4 0 9993

TLE line 2: 2 18784 90.2468 356.4583 0038259 309.1850 78.6045 12.96957509757569

Live tracking on map

Real-time ground track for satellite OPS 4682 DEB.

In-orbit conjunctions

A list of the most updated potential collisions computed for object OPS 4682 DEB.

Target Orbit TCA Probability of collision Miss distance Type
COSMOS 2357 LEO 2025-04-29 19:17:04 0.001398058 222.0 (m) PAYLOAD

Associated space launch

Experimental satellite equipped with a nuclear power system and a cesium ion engine.

OPS 4682 DEB was lifted into orbit during the mission ‘Atlas SLV-3 Agena D | SNAPSHOT-1’, on board a Atlas SLV-3 Agena D space rocket.

The launch took place on April 3, 1965, 9:25 p.m. from Space Launch Complex 4E.

For more information about the launch, click the button.

Launch to space Atlas SLV-3 Agena D | SNAPSHOT-1
Atlas SLV-3 Agena D | SNAPSHOT-1

Agency: N/A

Status: Launch Successful

Launch date: April 3, 1965, 9:25 p.m. UTC

Rocket: Atlas SLV-3 Agena D

Launch pad: Space Launch Complex 4E

Location: Vandenberg SFB, CA, USA

...

Latest news about this satellite

There are no fresh news available about this satellite. Check back as we update our databases every day.


Newsletter sign-up

Weekly statistics, charts and insights to help you stay on top of the space industry.